Mount Vernon, IL

3:25 PM CST on November 17, 2017 (GMT -0600)
Mount Vernon

Weather History for KMVN - September, 2013

Change the Weather History Date:

Friday, September 27, 2013

  Actual Average Record
Temperature  
Mean Temperature 55 °F -  
Max Temperature 84 °F 74 °F 93 °F (1998)
Min Temperature 26 °F 47 °F 26 °F (2013)
Degree Days  
Heating Degree Days 10    
Growing Degree Days 5 (Base 50)    
Moisture  
Dew Point 54 °F    
Average Humidity 67    
Maximum Humidity 100    
Minimum Humidity 37    
Precipitation  
Precipitation 0.00 in - - ()
Sea Level Pressure  
Sea Level Pressure 30.09 in    
Wind  
Wind Speed 2 mph (ESE)    
Max Wind Speed 10 mph    
Max Gust Speed -    
Visibility 8 miles    
Events      
Averages and records for this station are not official NWS values.
T = Trace of Precipitation, MM = Missing Value Source: NWS Daily Summary

Daily Weather History Graph

Daily Weather History Graph

Search for Another Location

Airport or City:

Trip Planner

Search our weather history database for the weather conditions in past years. The results will help you decide how hot, cold, wet, or windy it might be!

Date:

Astronomy

Sep. 27, 2013 Rise Set
Actual Time 6:47 AM CDT 6:44 PM CDT
Civil Twilight 6:21 AM CDT 7:10 PM CDT
Nautical Twilight 5:50 AM CDT 7:41 PM CDT
Astronomical Twilight 5:19 AM CDT 8:12 PM CDT
Moon No Moon Rise 2:18 PM CDT (9/27)
Length of Visible Light 12h 49m
Length of Day
11h 56m
Last Quarter, 45% of the Moon is Illuminated
Sep 27
Last Quarter
Oct 4
New
Oct 11
First Quarter
Oct 18
Full
Oct 26
Last Quarter

Hourly Weather History & Observations

Time (CDT) Temp. Windchill Dew Point Humidity Pressure Visibility Wind Dir Wind Speed Gust Speed Precip Events Conditions
12:15 AM 55.4 °F - 51.8 °F 88% 30.05 in 10.0 mi NNE 3.5 mph - N/A   Clear
12:35 AM 55.4 °F - 51.8 °F 88% 30.06 in 7.0 mi Calm Calm - N/A   Clear
12:55 AM 53.6 °F - 50.0 °F 88% 30.06 in 5.0 mi Calm Calm - N/A   Clear
1:15 AM 53.6 °F - 50.0 °F 88% 30.06 in 7.0 mi Calm Calm - N/A   Clear
1:35 AM 53.6 °F - 51.8 °F 94% 30.06 in 8.0 mi Calm Calm - N/A   Clear
1:55 AM 55.4 °F - 51.8 °F 88% 30.06 in 9.0 mi Calm Calm - N/A   Clear
2:15 AM 53.6 °F - 50.0 °F 88% 30.07 in 7.0 mi Calm Calm - N/A   Clear
2:35 AM 53.6 °F - 50.0 °F 88% 30.07 in 7.0 mi Calm Calm - N/A   Clear
2:55 AM 53.6 °F - 51.8 °F 94% 30.06 in 8.0 mi Calm Calm - N/A   Clear
3:15 AM 53.6 °F - 48.2 °F 82% 30.07 in 5.0 mi Calm Calm - N/A   Clear
3:35 AM 53.6 °F - 50.0 °F 88% 30.07 in 7.0 mi Calm Calm - N/A   Clear
3:55 AM 51.8 °F - 48.2 °F 88% 30.08 in 5.0 mi Calm Calm - N/A   Clear
4:15 AM 51.8 °F - 48.2 °F 88% 30.08 in 5.0 mi Calm Calm - N/A   Clear
4:35 AM 42.8 °F - 42.8 °F 100% 30.08 in 3.0 mi Calm Calm - N/A   Clear
4:55 AM 32.0 °F 28.7 °F - N/A% 30.08 in 3.0 mi NNE 3.5 mph - N/A   Clear
5:15 AM 35.6 °F - - N/A% 30.09 in 5.0 mi Calm Calm - N/A   Clear
5:35 AM 33.8 °F - - N/A% 30.09 in 4.0 mi Calm Calm - N/A   Clear
5:55 AM 28.4 °F - - N/A% 30.10 in 2.5 mi Calm Calm - N/A   Clear
6:15 AM 30.2 °F - - N/A% 30.11 in 2.5 mi Calm Calm - N/A   Clear
6:35 AM 26.6 °F - - N/A% 30.12 in 1.0 mi Calm Calm - N/A   Clear
6:55 AM 28.4 °F - - N/A% 30.12 in 1.8 mi Calm Calm - N/A   Clear
7:15 AM 28.4 °F - - N/A% 30.13 in 2.0 mi Calm Calm - N/A   Clear
7:35 AM 32.0 °F - - N/A% 30.14 in 3.0 mi Calm Calm - N/A   Clear
7:55 AM 35.6 °F - - N/A% 30.14 in 5.0 mi Calm Calm - N/A   Clear
8:15 AM 39.2 °F - - N/A% 30.14 in 9.0 mi Calm Calm - N/A   Clear
8:35 AM 42.8 °F - - N/A% 30.14 in 10.0 mi Calm Calm - N/A   Clear
8:55 AM 46.4 °F - - N/A% 30.15 in 10.0 mi Calm Calm - N/A   Clear
9:15 AM 59.0 °F - 57.2 °F 94% 30.15 in 10.0 mi Calm Calm - N/A   Clear
9:35 AM 69.8 °F - 57.2 °F 64% 30.15 in 10.0 mi ESE 3.5 mph - N/A   Clear
9:55 AM 71.6 °F - 59.0 °F 64% 30.16 in 10.0 mi SSE 5.8 mph - N/A   Clear
10:15 AM 73.4 °F - 59.0 °F 61% 30.16 in 10.0 mi SE 4.6 mph - N/A   Clear
10:35 AM 75.2 °F - 57.2 °F 53% 30.16 in 10.0 mi SSE 6.9 mph - N/A   Clear
10:55 AM 77.0 °F - 57.2 °F 50% 30.16 in 10.0 mi SE 5.8 mph - N/A   Clear
11:15 AM 77.0 °F - 57.2 °F 50% 30.15 in 10.0 mi East 9.2 mph - N/A   Clear
11:35 AM 78.8 °F - 55.4 °F 44% 30.15 in 10.0 mi ESE 6.9 mph - N/A   Clear
11:55 AM 78.8 °F - 55.4 °F 44% 30.14 in 10.0 mi SSE 9.2 mph - N/A   Clear
12:15 PM 80.6 °F - 55.4 °F 42% 30.13 in 10.0 mi SSE 6.9 mph - N/A   Clear
12:35 PM 80.6 °F - 55.4 °F 42% 30.12 in 10.0 mi SE 9.2 mph - N/A   Clear
12:55 PM 82.4 °F - 57.2 °F 42% 30.12 in 10.0 mi East 9.2 mph - N/A   Clear
1:15 PM 80.6 °F - 57.2 °F 45% 30.11 in 10.0 mi ESE 6.9 mph - N/A   Clear
1:35 PM 82.4 °F - 55.4 °F 39% 30.10 in 10.0 mi ESE 10.4 mph - N/A   Clear
1:55 PM 82.4 °F - 55.4 °F 39% 30.09 in 10.0 mi ESE 5.8 mph - N/A   Clear
2:15 PM 82.4 °F - 55.4 °F 39% 30.08 in 10.0 mi ESE 10.4 mph - N/A   Clear
2:35 PM 84.2 °F - 55.4 °F 37% 30.08 in 10.0 mi ESE 8.1 mph - N/A   Clear
2:55 PM 84.2 °F - 55.4 °F 37% 30.07 in 10.0 mi ENE 5.8 mph - N/A   Clear
3:15 PM 84.2 °F - 55.4 °F 37% 30.06 in 10.0 mi ESE 6.9 mph - N/A   Clear
3:35 PM 84.2 °F - 55.4 °F 37% 30.06 in 10.0 mi East 8.1 mph - N/A   Clear
3:55 PM 71.6 °F - 57.2 °F 60% 30.05 in 10.0 mi ESE 6.9 mph - N/A   Clear
4:15 PM 69.8 °F - 57.2 °F 64% 30.05 in 10.0 mi SE 5.8 mph - N/A   Clear
4:35 PM 82.4 °F - 55.4 °F 39% 30.05 in 10.0 mi East 6.9 mph - N/A   Clear
4:55 PM 82.4 °F - 55.4 °F 39% 30.05 in 10.0 mi ESE 6.9 mph - N/A   Clear
5:15 PM 69.8 °F - 55.4 °F 60% 30.05 in 10.0 mi ESE 8.1 mph - N/A   Clear
5:35 PM 66.2 °F - 55.4 °F 68% 30.06 in 10.0 mi East 6.9 mph - N/A   Clear
5:55 PM 80.6 °F - 53.6 °F 39% 30.06 in 10.0 mi East 5.8 mph - N/A   Clear
6:15 PM 62.6 °F - 55.4 °F 77% 30.06 in 10.0 mi East 3.5 mph - N/A   Clear
6:35 PM 73.4 °F - 53.6 °F 50% 30.06 in 10.0 mi ENE 3.5 mph - N/A   Clear
6:55 PM 71.6 °F - 55.4 °F 57% 30.06 in 10.0 mi Calm Calm - N/A   Clear
7:15 PM 66.2 °F - 55.4 °F 68% 30.06 in 10.0 mi Calm Calm - N/A   Clear
7:35 PM 66.2 °F - 55.4 °F 68% 30.06 in 10.0 mi Calm Calm - N/A   Clear
7:55 PM 66.2 °F - 55.4 °F 68% 30.06 in 10.0 mi Calm Calm - N/A   Clear
8:15 PM 62.6 °F - 53.6 °F 72% 30.06 in 10.0 mi Calm Calm - N/A   Clear
8:35 PM 59.0 °F - 53.6 °F 82% 30.07 in 10.0 mi SW 6.9 mph - N/A   Clear
8:55 PM 60.8 °F - 53.6 °F 77% 30.07 in 10.0 mi Calm Calm - N/A   Clear
9:15 PM 62.6 °F - 53.6 °F 72% 30.08 in 10.0 mi Calm Calm - N/A   Clear
9:35 PM 57.2 °F - 53.6 °F 88% 30.07 in 10.0 mi Calm Calm - N/A   Clear
9:55 PM 57.2 °F - 51.8 °F 82% 30.08 in 10.0 mi Calm Calm - N/A   Clear
10:15 PM 55.4 °F - 51.8 °F 88% 30.08 in 10.0 mi Calm Calm - N/A   Clear
10:35 PM 55.4 °F - 50.0 °F 82% 30.08 in 7.0 mi Calm Calm - N/A   Clear
10:55 PM 55.4 °F - 51.8 °F 88% 30.07 in 9.0 mi Calm Calm - N/A   Clear
11:15 PM 53.6 °F - 50.0 °F 88% 30.07 in 10.0 mi Calm Calm - N/A   Clear
11:35 PM 53.6 °F - 50.0 °F 88% 30.07 in 10.0 mi Calm Calm - N/A   Clear
11:55 PM 53.6 °F - 48.2 °F 82% 30.07 in 8.0 mi Calm Calm - N/A   Clear